Theta_e
351 352 355 359 359 360 361 360 359 359 358 358 357 356 355 354 354 354 354 354 352 350 349 349 348 347 348 348 347 348 348 349 348 349 350 351 352 351 351 351 351 351 351 352 352 351 351 351 351 351 350 350 351 351 351 350 350 349 349 350 351 351 351 351 350 350 349 349 349 349 347 347 350 348 346 348 348 346 347 345 345 341 342 344 346
350 353 354 357 358 359 359 359 359 358 358 358 356 355 355 354 355 355 354 352 350 350 349 348 348 347 347 349 349 348 348 349 349 350 350 351 351 351 351 351 351 351 351 352 352 351 351 351 351 351 351 351 351 351 350 350 350 350 350 350 350 351 350 350 350 350 350 349 349 348 347 347 348 348 348 348 348 346 345 345 345 341 341 345 346
351 352 353 356 359 359 359 359 359 358 357 356 356 355 354 355 354 353 352 350 350 349 349 348 348 347 348 349 349 349 350 350 350 351 350 351 352 352 351 351 351 352 352 351 351 351 351 351 351 350 350 351 350 350 349 349 349 349 349 350 350 349 350 351 351 350 350 349 348 348 347 346 346 346 346 347 347 347 346 345 345 346 342 345 345
349 350 353 356 358 358 358 358 358 357 357 356 355 355 355 354 353 352 350 350 349 349 348 348 348 348 350 350 351 351 351 351 351 351 351 352 352 352 351 351 351 352 351 351 351 352 351 351 351 351 350 350 350 350 348 349 348 348 348 348 348 348 349 349 351 351 350 350 348 346 343 340 342 345 345 345 347 346 346 347 346 346 346 345 345
348 349 352 354 355 357 357 357 357 356 356 355 355 354 354 353 351 351 350 350 349 348 347 347 347 348 348 350 351 351 351 351 351 351 353 352 352 351 352 352 352 351 352 351 352 351 351 350 350 350 350 349 348 348 348 348 348 347 347 346 346 345 345 347 348 350 351 349 348 345 340 340 339 344 345 345 344 344 346 346 346 344 343 343 343
347 348 348 350 353 356 356 356 356 355 355 355 354 354 353 352 351 351 350 349 348 347 347 347 347 347 347 348 351 351 351 350 350 351 352 352 352 352 351 352 351 351 351 351 351 351 351 350 350 349 348 348 348 348 348 347 347 346 345 344 343 344 343 341 345 345 349 352 351 348 339 338 338 341 343 344 345 343 343 344 345 343 342 342 341
347 348 348 350 352 354 355 356 355 355 355 354 354 353 352 352 351 350 350 349 347 347 347 347 347 347 347 348 348 351 351 351 351 352 352 352 351 352 352 352 351 351 351 351 351 351 351 350 350 349 349 348 348 349 347 346 345 344 343 342 342 342 342 343 344 344 348 348 343 343 335 338 340 340 344 343 343 344 345 344 342 342 341 341 341
348 347 347 350 352 355 355 355 355 354 354 354 353 352 351 351 351 350 349 348 347 347 346 346 346 346 347 347 347 350 352 352 352 352 352 352 351 350 351 353 351 350 350 351 351 350 350 350 350 349 348 348 348 348 346 345 344 342 341 339 340 342 343 344 345 346 348 344 335 334 335 338 339 342 345 345 342 343 343 343 342 341 340 339 340
347 346 349 352 352 355 355 354 354 354 353 353 352 351 351 350 349 348 348 347 347 347 347 346 346 346 347 346 347 348 349 350 352 352 352 352 352 351 351 352 351 350 350 351 349 349 349 350 350 350 350 349 348 347 346 344 343 341 340 340 340 342 344 344 345 348 345 336 335 334 334 335 338 339 344 345 345 344 341 340 339 339 339 339 338
346 348 351 351 351 354 354 354 353 353 352 352 351 351 350 349 348 348 347 347 347 347 346 346 346 346 346 346 347 348 349 351 353 353 353 352 351 351 351 351 351 350 349 349 349 349 350 349 350 350 350 348 347 346 345 343 342 341 340 340 341 342 342 345 346 346 336 334 335 336 337 340 336 338 341 343 344 344 343 343 340 339 338 339 342
346 349 349 349 350 352 352 353 353 352 352 351 351 350 349 349 348 348 347 347 347 347 347 346 346 346 346 346 347 348 349 350 352 353 352 351 351 351 351 350 349 349 349 349 349 349 350 350 349 349 348 347 345 344 343 343 341 341 341 342 341 344 342 345 346 336 329 330 334 334 339 343 337 339 343 343 342 343 341 340 340 338 338 340 343
348 349 350 351 354 351 352 352 352 352 351 351 350 349 349 348 348 348 347 347 347 347 347 347 346 346 346 346 347 347 349 350 351 351 351 350 350 350 350 350 349 348 348 349 349 350 350 349 348 347 347 346 345 345 343 342 342 341 342 342 343 343 344 344 343 334 334 335 335 334 334 335 337 339 342 342 341 341 341 339 339 339 340 341 342
350 350 350 349 350 352 352 351 351 351 350 350 349 348 348 348 348 348 347 348 348 348 347 347 347 347 346 347 347 347 348 350 350 350 350 349 349 349 350 350 349 348 348 348 349 349 349 348 348 347 347 346 345 345 343 341 342 341 342 341 342 342 343 346 343 333 333 334 334 334 335 334 336 340 340 340 340 340 339 340 341 342 342 342 342
348 347 346 346 348 354 351 351 351 350 350 350 349 349 348 348 348 348 348 349 349 348 349 348 347 347 347 347 348 349 350 350 349 349 349 348 348 348 348 349 348 347 347 349 348 348 348 348 348 347 347 346 345 344 343 342 341 342 341 341 342 342 343 344 341 335 335 335 336 335 335 335 335 340 339 339 340 339 342 343 342 342 342 341 342
347 346 346 347 348 348 353 351 351 350 350 349 349 349 348 349 349 348 348 348 348 349 349 348 348 348 348 348 349 350 350 350 349 349 348 348 347 348 348 348 348 347 347 348 349 349 348 348 348 347 346 345 344 343 342 341 341 341 340 341 341 344 344 340 336 335 335 335 335 333 333 333 341 341 342 342 341 340 341 343 342 341 342 341 340
349 347 347 347 346 347 348 352 350 350 350 350 349 348 348 348 349 348 349 349 349 350 350 350 349 350 350 350 349 350 349 349 349 349 348 348 348 348 348 348 348 346 346 348 349 348 348 347 347 347 346 344 343 342 341 341 339 341 338 341 342 343 346 346 330 331 332 332 332 333 335 338 342 342 342 342 342 341 341 342 341 341 341 341 340
353 349 345 345 346 345 344 347 349 350 350 350 349 349 349 350 349 349 349 348 349 350 350 350 350 350 350 349 349 349 349 349 348 348 348 348 348 347 348 348 347 346 347 348 348 348 348 348 347 346 346 344 342 341 340 339 340 340 339 342 343 345 347 353 335 336 335 334 334 334 335 339 342 342 343 342 341 340 339 339 340 340 340 339 339
348 351 344 345 344 343 344 344 347 347 348 350 350 349 349 349 350 350 349 349 349 349 350 351 351 350 350 349 349 349 349 348 348 348 347 347 349 348 348 347 347 346 347 348 348 348 348 348 347 345 345 343 342 340 339 338 339 339 341 341 344 346 347 351 335 335 336 338 334 337 338 341 342 341 341 341 340 340 339 339 339 339 338 338 337
347 349 345 344 342 343 343 344 346 345 346 348 348 348 349 349 350 350 349 349 349 349 350 351 351 350 350 349 350 349 349 348 348 347 347 347 347 349 347 347 347 347 348 348 348 348 348 347 347 346 344 343 341 341 338 337 338 339 339 342 342 344 346 344 337 335 336 334 333 336 338 342 341 339 339 339 338 338 338 338 338 337 336 337 336
346 349 346 344 344 342 343 343 344 346 346 347 348 348 349 349 350 350 349 349 349 349 349 350 350 350 350 350 350 349 348 347 347 346 347 346 347 347 347 346 346 347 346 347 348 348 348 348 347 345 343 342 341 339 339 339 338 339 339 342 342 344 339 341 335 335 334 334 335 335 339 339 338 337 337 337 336 336 336 335 336 335 335 335 334
345 346 347 348 346 345 343 343 343 345 346 347 348 348 348 349 349 350 349 348 349 349 349 350 349 350 350 350 350 348 346 346 346 343 346 345 346 348 346 346 346 346 346 346 348 348 348 348 346 344 343 342 341 340 339 338 340 338 341 341 342 338 338 338 336 337 335 334 335 335 338 337 336 335 335 336 336 335 335 333 333 333 334 334 333
341 343 347 347 346 345 344 343 344 344 346 348 348 348 349 348 347 348 348 348 349 348 348 348 349 348 349 349 348 348 346 345 345 346 344 343 344 346 346 346 345 345 346 347 347 347 347 347 346 344 343 342 341 338 338 340 341 341 341 340 340 336 345 339 337 335 334 332 335 336 336 336 336 335 335 334 335 335 335 334 334 333 332 332 332
340 342 345 345 346 345 345 344 345 347 346 347 348 348 347 347 346 346 347 349 347 347 346 345 345 345 346 346 349 348 346 344 346 345 345 343 344 346 346 345 345 345 347 347 346 347 347 347 346 345 344 343 340 335 335 334 336 341 343 340 337 340 343 338 336 335 333 333 332 337 336 336 336 335 334 334 333 334 334 334 333 331 331 331 331
342 343 344 345 345 344 347 350 348 347 346 346 347 347 347 347 346 345 346 346 347 346 346 344 345 345 345 347 348 348 348 346 347 347 346 342 344 345 346 345 345 346 347 346 347 347 346 346 346 345 344 341 335 338 333 334 335 336 338 339 341 340 342 337 335 333 332 333 333 336 335 335 335 336 335 336 336 335 334 333 332 331 331 331 332
344 344 342 343 345 347 344 347 348 349 347 346 347 345 347 347 345 345 346 345 345 346 346 346 345 345 345 347 348 350 349 349 345 345 342 343 341 341 343 342 343 343 346 343 344 344 345 344 344 344 341 337 336 339 336 334 336 337 339 341 342 341 336 338 335 332 332 332 333 337 335 335 335 335 335 335 335 334 334 333 332 331 331 331 331
342 341 342 343 345 343 344 346 347 348 349 347 347 347 346 346 347 349 352 351 350 347 346 344 344 341 342 347 345 344 343 343 346 344 343 341 339 339 339 340 340 339 343 342 342 345 344 343 341 340 340 339 339 340 341 337 338 342 337 341 340 340 341 335 334 333 332 332 333 335 335 335 335 336 334 334 335 334 334 333 332 331 331 330 331
343 339 339 343 342 343 343 345 346 346 346 347 348 347 347 348 349 347 346 345 346 344 342 343 344 342 344 343 341 341 341 340 342 343 343 341 339 338 339 339 338 336 337 340 339 345 343 342 340 338 339 340 340 338 342 339 338 336 335 337 338 337 335 334 334 333 332 332 334 335 334 335 336 335 333 334 333 333 334 333 333 333 332 332 331
342 340 340 343 341 341 344 344 344 345 345 345 346 347 346 346 347 346 345 346 345 342 341 342 342 343 342 343 344 343 341 342 339 339 341 342 339 339 338 338 337 337 335 341 338 340 341 342 340 339 337 338 336 342 338 333 338 340 335 337 335 339 338 336 334 333 332 332 332 334 333 335 335 335 334 334 335 334 334 335 333 332 332 332 332
340 341 342 341 339 340 341 342 341 343 344 345 344 344 346 346 345 345 345 345 345 343 342 341 342 344 343 342 345 343 342 344 341 341 342 341 343 339 337 338 338 337 335 341 341 339 339 342 341 338 338 338 340 338 336 335 332 339 335 335 336 335 336 337 336 334 332 332 332 333 335 334 333 333 335 334 335 335 335 335 332 331 333 333 331
341 342 342 339 339 341 338 341 343 342 344 344 344 344 345 345 344 344 341 343 342 343 343 341 341 342 342 343 344 343 342 341 338 343 343 342 342 343 344 339 338 337 334 339 341 340 338 340 341 339 337 342 337 340 338 338 333 336 336 334 334 335 338 336 336 335 335 333 332 333 336 337 336 335 335 336 336 337 336 334 330 331 330 332 331
342 341 342 342 340 342 343 343 342 344 344 343 343 342 344 343 343 343 344 342 343 344 344 342 342 340 342 344 343 342 342 342 341 342 345 341 340 338 339 341 339 336 332 335 339 339 338 339 340 341 342 343 343 339 336 337 332 332 334 333 335 336 336 338 337 336 334 331 331 332 334 335 335 336 336 337 335 335 334 332 332 331 330 330 331
343 342 342 343 344 342 344 343 344 345 344 343 343 340 340 343 342 342 340 344 343 341 340 342 342 342 342 340 343 344 344 344 343 343 340 344 340 342 342 340 339 341 335 334 337 340 339 339 341 342 347 343 342 339 339 338 331 330 333 331 335 335 336 337 337 336 336 333 330 330 331 334 336 335 335 335 336 334 332 333 334 333 332 331 331
344 345 343 344 343 343 342 343 344 342 338 340 338 341 343 341 343 340 343 344 342 342 342 340 341 342 342 341 341 340 343 344 343 345 345 342 342 339 341 339 339 341 344 340 338 343 341 343 344 347 346 342 340 341 336 336 337 339 337 335 336 334 336 337 337 337 336 336 333 331 330 333 334 337 337 334 334 332 331 333 333 333 330 332 329
343 344 344 342 341 343 344 342 342 341 339 341 341 342 344 343 342 343 343 343 344 342 340 340 343 343 341 342 343 341 345 346 343 343 343 342 341 341 340 337 340 339 344 347 342 338 340 339 341 342 344 340 340 339 339 336 336 337 338 336 337 337 336 336 336 336 336 335 335 333 333 332 332 331 332 334 333 332 331 332 333 332 329 330 329
343 344 341 340 341 345 344 343 342 339 340 340 343 343 343 342 341 342 343 343 344 342 341 343 343 342 340 338 341 343 343 344 345 345 343 344 341 339 339 340 340 340 341 342 345 344 342 339 337 337 339 337 338 340 335 337 336 333 335 337 334 337 340 336 337 336 336 337 337 336 336 333 331 331 332 332 334 334 333 333 333 331 330 329 329
343 344 343 343 343 344 345 343 344 343 343 342 342 343 341 345 345 345 343 344 345 344 344 344 344 346 344 343 344 345 344 344 345 344 345 342 341 340 341 342 339 336 339 340 344 342 340 340 338 338 336 334 334 333 336 338 336 335 337 337 338 337 336 336 336 335 337 337 335 336 334 336 336 332 334 331 330 333 336 334 333 330 329 329 330
344 344 343 342 341 343 344 344 343 343 346 345 345 343 345 344 343 342 341 343 342 346 345 345 344 344 343 342 343 344 343 344 344 345 343 341 340 338 341 342 339 339 339 343 342 341 340 339 341 338 336 335 332 332 334 335 334 337 336 335 337 337 338 339 337 337 339 337 336 337 336 336 338 339 337 337 330 331 335 333 331 329 329 330 331
343 344 344 343 342 343 343 343 344 344 345 345 344 344 344 342 343 342 342 342 345 345 345 344 343 343 342 341 341 343 343 342 343 344 343 342 340 339 338 340 342 340 340 339 338 338 338 340 338 339 336 334 331 331 332 333 336 336 335 336 337 338 338 338 339 340 340 334 334 335 335 337 337 336 335 334 331 330 330 332 331 330 330 333 333
343 343 343 342 341 341 343 342 342 343 342 342 342 342 342 343 343 337 337 342 345 345 345 343 343 343 342 341 341 342 343 342 342 343 342 340 338 338 338 340 342 340 338 336 335 334 335 338 338 338 339 337 333 333 332 334 334 335 334 335 338 339 339 339 340 339 339 339 334 335 337 336 335 335 334 333 334 330 329 328 329 330 332 335 331
343 343 342 342 340 341 341 340 341 340 340 342 341 339 338 340 338 339 338 339 343 342 343 343 344 342 343 343 341 341 340 341 341 342 340 339 337 338 339 338 336 338 337 336 336 334 332 335 337 337 336 336 335 335 336 335 334 335 335 338 338 337 338 338 338 337 337 338 337 334 333 335 335 335 335 334 335 335 328 328 330 329 330 333 335
342 342 340 341 339 337 339 338 339 339 339 341 340 340 337 337 338 340 337 339 338 341 342 343 342 344 344 343 342 342 341 340 341 340 339 338 337 337 338 336 338 338 337 336 337 335 336 334 332 332 335 334 334 335 336 335 333 332 334 334 334 336 337 338 336 337 337 337 337 333 334 335 334 334 335 335 335 335 333 328 329 331 329 330 333
338 340 340 340 339 339 338 340 340 340 342 344 343 342 341 340 337 337 339 338 338 339 339 341 343 344 344 343 342 341 341 340 339 338 338 339 337 337 337 337 336 335 336 338 339 338 336 335 335 332 332 332 333 334 337 333 326 327 327 326 329 332 334 334 334 335 335 336 336 336 335 334 334 335 335 334 333 334 335 332 333 333 332 332 331
337 337 339 340 340 340 341 339 338 339 339 339 338 339 343 344 342 343 341 340 342 343 342 343 344 343 343 343 342 342 341 341 339 337 338 338 338 337 335 338 335 334 334 335 337 336 337 336 334 331 329 331 333 338 335 334 327 331 330 326 322 321 326 329 332 334 334 335 334 334 335 335 335 336 335 334 332 333 333 334 333 334 335 334 334
335 336 337 337 338 338 340 341 341 342 342 342 341 344 343 344 345 344 344 341 339 343 344 344 343 342 340 341 340 342 340 339 337 337 338 338 338 339 337 336 337 336 335 336 336 336 336 334 333 333 331 327 328 329 334 333 331 329 321 322 322 322 318 322 326 330 333 333 334 332 334 334 334 335 334 332 332 333 333 334 335 334 333 332 332
334 334 335 336 337 337 339 340 340 340 342 341 344 344 343 341 342 343 342 342 341 340 339 339 340 341 340 340 340 340 339 339 340 340 339 337 339 337 338 337 337 337 336 335 335 336 336 336 334 333 333 330 327 331 331 332 333 334 329 323 320 317 318 323 325 325 331 331 332 334 333 333 333 333 332 332 333 333 333 335 334 335 334 333 333
332 334 336 336 337 337 338 339 341 341 340 341 343 342 343 342 341 338 337 337 336 337 336 336 339 339 338 341 342 340 340 340 340 339 339 338 337 338 338 337 337 338 338 337 337 337 335 335 333 334 332 332 329 330 328 332 335 335 336 337 331 321 320 325 323 317 328 331 331 332 331 332 334 330 334 333 334 333 333 334 335 335 334 334 334
332 335 336 336 337 337 338 339 340 341 342 341 343 344 342 342 340 339 338 337 335 337 343 345 344 345 345 343 341 342 340 339 339 339 340 338 338 339 338 338 337 337 337 336 335 335 335 336 336 335 333 332 332 328 327 328 335 336 335 336 335 333 330 325 320 323 318 326 329 329 330 330 331 332 334 332 333 333 333 333 334 334 334 334 332
332 334 335 336 336 336 338 338 340 340 342 342 343 343 341 341 340 339 338 337 337 338 340 342 345 346 342 342 342 343 341 339 339 338 339 338 337 336 337 336 337 337 337 336 336 336 335 337 335 335 336 333 331 329 328 332 329 330 334 333 333 334 332 330 329 324 322 319 321 328 331 329 332 332 333 332 332 332 333 332 333 333 333 334 333
329 329 331 333 335 335 336 337 338 338 338 341 340 341 341 340 339 338 337 338 338 339 339 340 341 344 341 342 341 341 342 340 338 338 338 338 338 338 336 337 336 337 337 337 337 336 335 334 334 333 331 332 332 331 330 332 331 330 331 331 332 331 331 332 329 327 322 320 320 322 322 329 329 331 331 332 332 333 333 333 333 334 335 331 333
328 328 329 331 331 331 332 333 332 333 335 336 337 337 338 339 338 337 336 336 338 339 339 338 339 343 339 340 340 340 340 340 338 337 337 337 337 337 337 337 337 337 337 336 336 336 335 334 334 333 333 333 335 335 333 333 334 334 333 331 328 328 329 329 330 327 325 325 321 321 322 322 322 326 331 330 331 333 334 333 332 332 333 333 334
326 326 327 328 329 328 328 329 330 330 332 332 333 333 334 335 335 336 336 334 335 336 336 336 337 337 336 338 339 338 340 338 338 337 336 337 338 338 338 338 338 337 337 336 335 336 336 334 333 334 333 333 334 335 334 334 334 334 334 331 329 329 327 324 323 325 324 322 321 322 324 325 324 323 328 331 330 332 332 333 331 330 332 331 332
Wind_Speed
13 13 11 15 15 14 14 14 15 15 16 16 16 16 17 16 17 17 16 15 15 15 14 14 13 12 11 13 13 12 10 9 11 11 11 11 11 11 11 13 13 14 14 14 14 14 14 14 14 14 15 15 15 15 15 15 15 14 15 15 14 14 15 16 17 17 17 17 17 17 17 15 16 16 16 16 17 16 15 16 15 12 9 12 17
15 13 10 12 15 15 15 15 15 15 16 16 17 17 17 17 16 16 16 15 15 14 14 13 13 12 11 13 11 11 10 11 11 11 10 10 10 11 12 13 14 15 15 15 15 15 15 14 15 15 15 15 15 15 14 14 13 13 12 12 13 13 12 14 15 16 17 17 17 18 18 17 17 17 17 18 18 17 17 17 17 10 7 15 17
16 14 11 13 16 15 16 15 15 16 16 16 17 17 17 16 16 16 16 15 14 14 13 13 13 11 11 12 11 10 11 10 11 10 10 11 11 12 13 14 14 15 16 15 15 15 15 14 14 14 15 14 13 14 14 13 11 11 10 10 10 11 12 11 13 15 17 19 19 19 19 18 17 16 16 17 17 17 18 17 17 16 11 18 16
16 13 11 12 15 15 15 17 16 17 16 16 17 17 16 16 16 16 15 14 13 13 13 12 12 10 9 11 11 10 10 10 10 10 11 12 11 13 14 14 15 15 16 15 15 14 14 14 14 14 14 14 13 12 13 12 11 9 9 8 7 7 7 8 10 13 15 17 16 14 8 9 11 15 16 16 17 17 17 17 18 18 18 18 18
16 13 12 11 12 13 16 17 16 17 16 17 17 17 18 16 16 15 14 14 13 13 12 11 11 10 10 11 11 11 10 10 11 11 12 11 11 13 14 14 15 15 15 15 15 14 14 14 14 14 13 13 12 12 11 11 11 9 7 6 5 4 4 5 5 9 10 14 17 12 10 10 9 14 15 16 16 16 16 17 17 18 17 18 17
13 13 11 11 12 13 15 15 17 18 17 17 17 17 17 17 16 15 15 14 14 13 12 11 10 10 9 11 12 11 11 10 10 11 12 11 9 12 14 15 16 15 15 14 14 14 13 13 13 12 12 12 12 11 11 11 10 8 7 5 3 2 1 1 4 5 9 7 11 2 10 11 9 9 14 14 15 16 16 17 17 17 17 17 17
15 11 11 12 10 12 14 15 18 17 17 17 17 17 16 16 15 15 14 14 13 12 12 11 10 10 10 10 10 10 10 10 9 11 11 10 11 10 14 15 14 14 14 13 14 13 12 12 12 12 12 12 11 11 10 10 9 7 5 3 3 4 3 5 5 5 8 6 3 3 8 12 10 8 14 13 14 16 18 17 17 16 17 16 16
12 11 12 12 11 11 14 15 17 17 17 17 17 17 16 16 15 15 15 14 13 12 12 11 9 10 9 9 9 10 10 9 8 9 11 11 12 12 13 14 13 13 12 12 12 11 10 10 10 11 10 11 11 10 9 8 7 6 2 2 4 6 7 7 6 5 6 7 3 8 9 10 10 9 14 14 14 15 17 17 16 16 15 15 15
12 13 13 14 12 14 13 14 15 17 17 16 17 17 16 15 15 15 15 14 13 13 12 11 11 10 9 9 9 9 8 8 8 10 11 12 12 13 12 13 13 12 11 11 11 9 9 9 10 10 11 10 11 10 9 6 4 3 1 4 6 7 9 11 12 12 6 10 9 8 10 10 9 9 14 16 18 17 16 13 12 15 15 15 15
11 13 14 11 12 12 14 15 16 17 16 16 17 17 17 15 15 15 15 15 14 13 12 11 11 10 9 9 9 8 8 8 8 9 11 13 12 13 13 12 12 11 11 10 10 9 9 10 10 11 11 11 10 9 7 4 2 2 4 5 6 8 8 11 12 11 3 9 12 12 11 12 9 9 13 16 17 17 17 16 13 12 11 16 16
13 13 12 13 15 11 13 14 16 17 17 17 17 17 17 16 16 15 14 15 14 13 13 12 10 9 9 9 8 8 9 9 9 10 12 14 14 13 13 12 11 11 10 10 9 10 10 11 11 11 11 10 9 8 5 3 2 3 5 7 9 10 11 12 12 6 8 9 9 8 12 15 8 7 13 16 17 17 16 16 15 15 16 16 17
14 13 12 13 16 12 13 14 15 16 17 17 17 17 17 16 15 15 14 14 14 13 13 13 12 10 9 8 8 8 9 10 9 10 12 12 13 12 12 11 11 10 10 10 10 10 11 11 11 11 10 10 9 7 5 2 3 5 7 9 10 12 12 14 8 1 10 11 11 8 9 10 9 10 15 15 16 16 16 16 15 15 16 15 16
15 13 13 14 14 14 15 15 16 16 16 17 16 17 16 16 15 14 14 13 13 13 13 13 12 11 10 9 9 9 9 9 9 10 11 10 11 11 11 11 10 10 10 10 10 10 11 11 11 10 10 10 9 6 4 2 4 5 7 9 10 10 12 14 9 5 8 9 8 9 9 6 7 12 13 14 14 14 15 15 15 16 16 16 16
14 14 13 15 14 19 16 15 14 16 16 16 16 14 15 15 15 14 13 11 12 13 11 12 12 11 10 10 9 10 10 9 9 10 10 10 9 9 10 9 9 9 9 9 10 10 10 10 10 10 9 9 8 6 3 3 4 6 8 8 10 10 12 11 3 8 10 10 9 10 8 5 6 11 13 14 15 15 15 15 16 16 16 16 16
17 17 16 15 15 15 19 15 15 16 16 15 15 15 16 16 15 14 13 14 14 12 12 12 12 10 10 11 11 11 10 10 10 10 10 9 9 9 8 8 7 8 8 9 9 10 9 9 10 10 9 8 7 6 3 3 4 6 8 9 10 11 13 8 4 7 9 10 8 9 8 6 8 13 15 15 15 14 15 15 16 16 16 16 17
15 15 13 10 13 13 14 17 18 18 17 17 16 18 17 16 16 16 15 14 13 12 12 11 10 11 10 10 11 11 10 10 10 10 9 9 9 9 8 7 6 7 7 8 9 9 10 9 9 9 9 8 6 5 3 3 4 6 7 9 9 11 12 10 3 7 8 9 9 8 7 8 12 12 14 15 15 14 14 16 15 15 16 16 16
7 11 12 12 14 13 11 12 12 14 12 12 13 14 14 14 14 14 13 14 13 12 12 11 12 12 11 10 11 10 10 10 9 9 9 9 9 9 8 7 6 6 7 7 8 9 10 10 9 9 9 8 6 4 3 3 3 4 6 10 10 11 11 10 6 6 7 8 8 7 6 7 11 12 14 14 14 13 13 13 14 14 15 15 15
4 6 13 14 12 11 10 10 10 9 7 8 9 10 10 9 9 9 10 11 11 11 10 10 12 13 12 11 10 10 10 9 9 8 8 8 6 8 8 7 6 6 6 6 7 9 9 10 9 9 9 9 7 5 2 1 3 6 7 9 10 11 13 12 4 8 9 10 9 8 5 9 11 11 13 13 13 13 13 13 13 13 13 13 13
4 5 12 12 11 11 11 9 9 8 9 6 5 7 8 7 6 8 8 8 9 9 9 10 12 13 13 12 11 11 10 10 9 8 7 7 7 6 7 7 6 6 5 6 7 8 9 9 9 9 10 9 8 6 2 1 3 6 6 8 10 11 13 9 4 9 10 7 6 7 5 8 8 11 11 12 12 12 12 12 12 13 13 12 12
5 3 8 11 9 10 10 9 9 8 7 6 6 7 8 8 7 6 7 7 8 8 8 8 12 13 13 13 12 10 10 8 11 8 9 8 7 7 8 7 6 5 5 6 7 8 9 9 9 9 10 10 8 5 3 3 4 5 7 8 8 11 6 1 12 10 8 7 8 6 9 10 10 10 11 11 11 11 10 10 11 11 12 12 11
4 5 4 5 8 9 10 8 9 10 8 8 6 7 8 10 7 6 7 7 7 7 7 8 10 10 11 10 9 7 6 6 7 7 10 7 8 6 9 7 6 5 5 5 7 8 9 10 9 10 10 11 9 7 4 3 6 6 7 7 9 5 6 4 9 8 7 6 7 6 10 9 9 10 9 9 10 10 10 10 9 10 11 11 10
6 6 6 7 9 8 7 8 8 9 8 6 6 6 7 8 7 6 6 5 6 7 6 6 9 7 9 8 7 6 6 6 6 9 7 7 7 8 10 7 6 5 5 6 7 8 9 10 10 10 11 10 11 4 3 6 7 8 7 7 5 4 2 6 8 9 8 7 6 6 9 10 10 9 9 9 9 9 10 10 10 10 10 10 10
8 8 7 9 8 7 6 8 8 8 8 8 6 6 9 6 7 7 6 7 6 6 5 7 6 6 7 7 6 5 6 6 5 7 7 9 8 9 9 8 6 6 6 7 7 8 9 10 10 10 11 12 8 4 4 3 4 8 8 5 3 6 1 7 9 8 8 7 6 9 9 10 11 10 9 9 9 9 10 10 10 9 9 10 10
9 7 8 7 8 7 6 4 8 8 7 6 6 6 7 6 6 6 4 5 5 5 5 6 5 5 6 5 5 6 5 5 9 13 10 6 7 10 10 9 8 7 7 5 7 8 10 10 10 10 8 5 5 5 5 5 4 4 4 4 5 3 3 7 8 8 7 9 7 10 8 9 9 10 9 10 9 10 9 10 10 8 9 10 11
8 7 5 5 6 6 5 6 7 7 6 5 5 5 5 3 5 5 4 5 4 4 3 4 3 4 5 5 5 0 2 1 4 4 5 4 4 4 5 4 4 4 7 3 4 5 6 6 5 6 5 5 6 6 7 6 6 5 6 6 3 1 4 5 9 8 7 6 6 9 8 8 8 9 10 9 9 9 9 9 9 9 8 9 10
8 3 6 9 7 6 5 6 6 4 2 4 4 4 5 2 2 3 2 1 0 1 2 5 6 7 5 5 4 2 4 7 2 4 4 6 5 5 5 5 4 5 6 4 4 4 5 5 5 6 6 6 6 7 4 5 5 2 4 1 1 2 2 8 9 9 7 6 6 10 9 8 9 10 8 8 8 8 8 9 9 9 9 8 9
5 5 4 5 7 5 6 3 5 4 3 3 3 3 4 2 2 4 2 1 3 5 5 2 1 3 4 7 6 3 5 5 7 6 3 6 6 5 6 5 5 5 5 5 4 5 5 5 4 5 5 6 7 6 2 3 3 4 4 2 3 2 4 7 10 8 7 7 6 10 7 8 9 9 7 8 8 8 8 8 8 8 8 8 9
6 7 7 7 7 6 5 3 4 4 4 1 3 3 3 2 2 3 2 2 2 3 3 2 4 5 6 5 4 2 1 3 4 6 10 3 5 6 6 6 6 5 5 5 4 4 5 4 5 6 7 7 6 2 2 3 1 2 4 2 1 2 4 6 10 8 8 7 6 8 7 8 8 8 9 8 8 8 8 9 8 7 8 8 9
8 7 7 8 5 3 2 5 3 4 4 2 3 3 1 1 3 3 1 1 1 3 4 3 3 2 0 5 5 3 3 2 4 7 7 6 3 5 6 6 6 6 6 5 5 4 5 4 4 6 5 4 2 3 3 3 4 2 3 3 2 4 4 4 6 10 8 7 6 7 8 5 5 6 9 8 8 8 9 9 8 7 8 8 8
8 9 9 7 6 4 5 6 6 4 4 4 2 3 1 2 3 2 1 3 3 3 3 4 3 0 3 3 2 2 2 1 4 8 4 5 4 4 3 5 5 5 6 5 6 4 4 3 4 5 5 3 3 2 2 1 3 3 3 3 4 3 3 4 4 6 8 8 7 6 9 6 6 5 6 8 9 9 9 8 7 8 7 9 9
8 9 7 9 8 6 7 6 5 5 5 4 3 2 2 4 3 1 2 2 3 3 4 4 4 1 5 3 3 1 2 4 6 7 5 3 5 7 8 5 4 5 7 5 6 5 5 4 4 4 2 1 1 3 3 2 4 4 3 3 4 4 4 3 4 5 9 7 7 6 6 8 6 5 6 6 8 9 9 8 8 8 7 9 9
7 8 7 8 7 6 6 7 7 5 5 4 4 4 1 3 3 4 1 3 3 3 3 3 4 6 6 7 5 3 4 4 5 5 5 2 3 2 4 8 7 3 7 7 6 5 5 6 4 4 3 3 1 3 3 2 4 3 4 3 5 4 3 4 4 4 4 8 7 6 5 5 6 7 6 6 7 7 7 9 10 9 8 9 9
5 7 9 9 8 9 8 8 7 7 5 3 2 1 1 2 1 2 1 2 1 2 4 2 4 2 1 3 4 5 4 6 4 3 3 2 3 3 1 5 9 8 3 4 4 3 3 3 3 1 2 2 5 3 4 4 2 1 2 5 4 3 5 3 3 3 3 5 8 7 6 5 5 5 6 5 6 8 6 9 9 9 8 10 8
6 6 8 7 5 5 6 7 7 7 6 2 2 2 3 3 3 3 3 2 2 3 2 3 4 3 3 3 5 6 5 4 3 3 2 3 2 2 3 6 8 10 4 3 3 4 3 3 3 3 2 4 3 3 2 3 2 1 2 5 3 5 4 3 4 4 4 4 7 7 7 6 6 4 4 7 6 7 5 7 9 8 7 7 8
7 7 10 8 6 6 7 6 8 7 7 5 5 3 4 3 3 4 5 5 5 6 7 7 6 5 6 7 7 5 4 3 4 4 3 2 2 4 5 4 7 9 4 5 2 1 2 3 4 4 3 5 2 1 3 3 3 3 3 4 3 4 2 3 5 4 3 5 5 5 5 6 6 5 4 4 6 7 7 7 9 9 9 9 10
8 8 9 9 7 7 5 7 8 8 8 10 8 6 5 4 3 2 3 4 3 4 5 4 3 4 5 6 7 6 5 5 4 3 2 2 2 3 3 2 1 7 7 6 2 2 3 3 3 4 4 4 3 3 3 2 3 3 3 4 3 4 3 4 3 4 3 5 6 4 5 4 5 5 5 5 4 4 6 8 8 8 8 10 10
7 9 9 9 8 6 7 7 9 7 6 6 5 5 4 4 4 4 5 5 3 3 3 3 3 2 3 4 4 3 4 4 2 1 2 2 1 2 2 3 4 5 7 4 2 3 3 3 2 3 4 4 5 6 3 3 3 2 3 3 4 3 2 3 3 3 4 4 6 4 4 5 5 6 4 4 5 4 5 10 8 8 7 8 10
7 10 9 7 8 7 6 5 5 4 3 4 4 3 3 4 4 2 1 2 3 3 4 4 4 4 4 4 3 4 3 3 2 2 2 1 1 2 2 2 3 3 5 4 5 5 3 4 3 3 4 5 5 3 4 3 3 3 3 3 3 3 4 2 2 3 2 4 3 1 5 5 4 4 4 2 4 5 4 7 10 9 9 6 8
7 10 9 8 7 5 4 6 4 4 3 3 4 3 2 3 4 3 2 3 2 3 2 4 5 4 5 6 6 5 5 5 4 4 4 3 3 2 2 2 0 1 1 1 1 5 8 4 5 4 4 3 5 5 6 5 4 3 3 3 5 4 2 1 2 3 1 3 8 5 6 5 4 4 4 3 3 6 5 4 4 3 4 8 10
7 8 8 7 7 6 6 5 4 4 3 2 4 5 5 4 3 3 2 4 3 3 5 5 4 4 4 5 5 5 6 4 5 5 4 4 4 4 3 3 2 2 2 3 3 4 6 9 7 6 5 4 4 3 4 3 3 3 3 6 4 3 2 1 1 3 2 1 4 5 6 5 4 5 5 5 3 4 6 5 4 5 4 5 8
9 10 9 7 6 4 3 5 4 4 4 3 3 2 1 2 1 2 4 5 6 5 4 5 5 5 5 6 6 5 5 5 4 4 4 5 6 5 4 4 4 5 4 4 3 4 4 3 5 9 7 6 4 3 4 3 4 3 4 3 3 1 2 1 0 1 2 2 2 4 6 6 5 6 5 5 4 4 6 6 5 5 6 4 4
9 9 8 7 7 5 4 4 4 4 4 4 4 1 2 2 4 5 4 4 5 4 5 5 6 5 6 6 5 5 5 5 5 4 4 4 4 5 6 5 5 5 3 3 2 2 3 1 2 3 7 10 4 4 3 5 1 4 4 1 1 0 1 0 0 1 1 1 2 1 6 5 5 5 5 5 5 4 4 5 4 4 6 6 5
9 8 7 7 7 6 6 6 5 4 2 2 3 3 3 2 2 2 3 3 3 3 4 3 4 4 4 5 6 5 5 4 4 3 5 6 5 4 4 4 5 5 5 5 4 4 3 3 4 5 3 10 6 1 5 3 5 4 3 4 2 2 0 1 2 1 2 1 2 2 6 5 6 5 5 5 5 5 4 3 3 4 4 5 5
7 7 7 7 5 5 5 4 3 3 3 3 3 3 1 1 2 3 3 4 4 3 3 3 4 4 5 5 5 3 4 4 4 5 5 4 6 5 4 4 4 6 6 5 5 4 5 5 4 5 6 5 8 2 3 10 4 5 6 3 3 3 2 5 4 3 3 3 2 6 6 5 5 5 5 5 6 6 5 5 5 6 6 5 4
7 8 7 6 4 5 5 4 3 2 1 1 2 3 3 4 4 4 4 3 4 5 5 5 6 6 6 5 5 6 7 6 5 6 5 5 5 5 6 5 5 4 5 4 5 5 5 5 4 3 5 4 5 4 4 7 8 6 3 4 2 0 2 2 5 2 4 3 4 4 4 7 5 5 5 5 5 6 5 6 6 4 5 6 5
8 7 6 5 4 3 3 3 2 1 1 1 1 0 3 3 3 4 4 5 5 5 6 5 4 5 6 4 4 6 7 6 6 7 8 6 5 6 5 5 6 4 4 5 5 4 5 5 5 4 2 3 4 4 6 7 8 7 3 1 1 2 4 2 6 3 2 3 3 2 0 4 5 3 4 3 5 6 6 6 6 5 4 4 4
8 7 6 5 5 4 3 2 2 1 1 1 2 0 2 3 3 3 3 3 4 4 2 2 1 2 1 2 4 5 7 6 5 5 5 4 6 5 5 6 5 5 5 5 5 6 5 5 5 5 5 5 4 6 8 8 4 3 4 1 0 1 5 4 4 4 3 3 1 2 4 3 4 5 4 3 4 5 5 6 5 6 5 4 3
7 7 5 5 6 5 4 4 3 3 2 3 2 3 3 3 3 3 3 4 3 3 3 2 1 1 2 2 2 3 5 5 5 6 6 6 4 4 7 6 6 7 6 7 7 6 5 4 4 5 4 5 5 6 8 6 7 5 4 4 2 1 3 4 3 1 2 5 4 3 2 8 4 4 5 5 5 5 5 7 7 6 5 6 5
8 8 7 6 5 6 6 6 5 5 5 5 5 4 4 5 5 5 5 3 4 3 4 3 2 1 2 1 2 2 1 3 5 6 7 7 5 7 7 6 6 7 7 6 6 6 7 6 6 5 6 6 8 8 9 7 6 5 5 4 3 3 3 4 5 6 3 4 6 6 5 4 4 3 5 4 3 4 5 6 5 5 5 6 6
7 7 7 7 7 7 8 7 8 7 7 8 8 8 8 6 5 5 6 5 5 4 4 4 3 1 2 2 2 1 2 2 4 5 5 6 6 6 7 7 8 7 7 8 8 7 7 7 6 6 7 8 7 8 7 5 4 4 5 5 6 4 3 2 2 3 6 6 4 8 7 8 8 5 5 5 4 4 4 5 5 6 6 5 6
7 8 8 7 7 7 8 9 8 7 8 8 9 9 8 8 7 8 8 8 7 6 5 5 4 5 3 2 1 2 2 2 2 3 4 5 5 6 6 7 7 7 7 8 8 8 8 8 7 7 7 8 5 5 5 4 4 5 4 5 6 6 6 5 5 5 4 4 5 6 7 8 8 7 7 6 6 6 6 4 5 6 6 5 5
Wind_Direction
107 113 115 119 122 119 114 118 112 108 108 108 108 109 108 108 108 104 103 104 103 99 97 95 93 91 90 94 91 91 97 94 94 91 82 79 80 85 90 90 95 99 101 100 98 96 96 95 93 91 87 86 84 82 81 81 80 83 85 87 85 88 94 96 94 93 91 87 83 77 77 78 73 71 71 68 63 63 67 74 70 63 61 62 64
118 110 121 121 114 116 116 115 107 110 109 109 110 110 109 108 106 106 104 103 103 102 102 100 96 93 91 93 94 97 98 97 93 93 97 92 85 90 97 100 99 99 100 101 100 97 96 95 95 93 90 88 85 85 83 81 78 80 81 81 87 91 93 99 103 103 99 92 86 81 76 73 71 70 67 65 64 64 64 66 69 70 65 64 62
111 114 121 120 116 118 110 109 110 111 110 110 111 110 110 109 109 107 106 106 106 106 104 103 102 100 97 101 104 102 101 103 102 98 96 95 102 100 95 100 101 102 103 102 99 98 97 98 95 94 93 90 89 86 85 82 79 76 77 79 84 92 98 101 107 110 110 105 99 92 79 70 69 70 74 73 74 73 71 71 72 70 67 66 65
109 113 116 119 111 111 109 111 114 112 110 108 110 109 109 109 109 109 109 110 110 107 106 106 106 108 101 103 111 110 107 111 111 104 91 87 96 100 105 105 106 104 103 103 101 99 99 98 94 90 90 87 83 81 85 85 81 72 67 71 75 77 91 104 118 120 122 123 112 99 88 77 65 67 70 74 76 75 75 77 78 75 69 65 64
110 114 119 123 119 108 112 112 114 115 108 108 110 113 112 111 111 112 114 114 112 110 111 111 112 114 108 117 116 112 113 112 111 103 91 95 99 105 107 106 103 104 103 102 104 104 101 96 93 88 87 85 84 85 85 86 82 76 71 68 68 78 64 102 121 139 138 141 127 119 106 94 76 68 71 72 72 75 76 76 77 77 74 68 64
111 118 127 125 122 118 113 113 116 112 112 113 114 114 113 114 114 114 115 115 115 115 116 118 117 115 107 115 117 116 114 113 108 102 99 99 102 108 109 106 107 107 104 105 103 99 93 90 93 92 87 87 85 84 83 83 82 76 67 54 5 56 71 117 173 205 201 235 286 84 102 85 79 72 74 76 74 69 70 73 74 73 71 71 68
115 121 127 123 123 122 113 115 116 116 116 117 117 116 116 117 117 116 116 118 120 121 122 124 126 118 114 114 110 111 117 118 113 106 107 106 104 108 108 106 105 103 99 98 97 92 90 90 91 94 94 90 86 82 80 78 80 75 66 40 313 299 236 227 204 217 221 231 257 261 76 83 81 74 73 77 81 79 71 68 69 71 72 73 71
121 130 129 120 121 119 118 117 118 118 121 122 121 121 123 124 123 121 120 122 124 125 129 129 127 125 120 117 111 106 109 114 119 115 113 109 102 102 108 107 102 97 100 100 97 90 88 91 91 92 95 91 86 81 78 79 78 85 84 244 266 284 310 320 312 292 248 248 185 101 82 87 82 80 77 77 79 86 81 71 65 66 69 70 72
131 132 109 109 120 120 123 122 124 126 128 126 127 128 129 131 130 128 129 131 133 136 137 135 133 133 129 122 118 107 92 86 91 120 123 114 108 104 105 105 101 94 84 78 76 79 81 90 99 97 92 91 89 86 79 76 87 77 2 298 312 333 327 330 333 332 304 70 48 80 91 91 85 82 74 74 71 67 69 68 65 67 70 72 73
130 107 106 113 127 124 124 130 132 133 132 134 133 134 136 136 136 135 137 137 139 138 135 134 135 137 135 128 121 104 88 88 97 107 99 104 111 112 111 106 101 95 89 89 89 85 85 91 100 97 91 90 89 86 81 71 62 24 329 333 331 329 333 330 325 312 84 79 67 66 76 81 84 79 81 78 75 72 71 75 76 75 75 72 70
105 103 112 120 129 127 131 134 138 140 141 141 142 141 141 142 141 139 140 140 140 142 140 136 140 141 137 132 120 104 93 96 107 104 99 105 113 114 109 101 95 93 90 86 87 86 84 88 94 95 92 90 90 88 89 70 15 345 328 335 349 334 331 329 325 286 83 92 98 89 87 88 80 81 85 81 78 76 75 77 79 77 75 74 74
98 105 112 121 126 137 139 140 144 146 145 144 145 145 144 143 142 142 143 144 147 146 142 141 144 148 145 137 125 114 110 104 108 109 106 108 111 115 111 103 97 95 89 87 90 92 90 90 91 98 100 95 91 89 87 70 3 344 350 338 335 338 325 314 311 319 77 73 66 71 78 85 84 85 85 87 85 82 81 81 81 78 74 72 69
103 109 121 133 138 147 147 145 145 145 145 146 144 145 144 143 144 146 149 150 149 144 144 143 144 147 147 143 134 125 119 114 112 111 111 115 111 113 110 105 102 98 94 90 94 100 99 98 99 97 99 97 93 89 80 49 358 354 340 337 332 324 318 310 285 98 86 89 93 84 80 81 88 91 89 89 90 87 83 80 76 74 74 73 72
122 135 145 146 148 154 148 145 143 145 145 146 146 146 146 146 147 149 152 151 148 146 141 143 145 149 149 146 141 127 126 124 120 117 116 119 120 116 114 109 108 99 94 96 98 101 105 100 98 98 95 94 94 93 75 31 1 349 340 335 325 312 311 310 108 76 85 84 76 75 69 68 84 88 92 92 87 85 84 83 81 78 77 75 73
146 156 154 149 144 150 146 143 147 151 150 150 150 150 150 149 151 153 155 154 152 144 141 146 150 149 147 144 132 134 132 127 125 122 125 130 131 128 123 117 106 104 99 100 107 108 106 108 102 97 95 98 100 97 77 24 14 346 336 326 321 317 316 316 52 87 85 80 81 88 89 88 76 87 87 89 89 87 83 82 80 80 77 73 73
156 144 136 130 135 146 150 155 156 157 156 154 154 154 154 155 155 159 161 159 151 145 146 147 148 139 134 134 136 137 137 135 131 130 128 131 136 140 133 119 114 110 105 103 111 116 115 110 111 109 104 100 102 95 79 45 8 340 328 318 305 306 311 315 84 93 94 93 86 82 85 80 80 87 90 88 87 88 85 81 78 76 75 74 73
78 118 134 139 145 152 154 157 153 149 142 144 147 151 154 154 156 159 160 157 150 149 149 147 146 142 141 142 139 136 137 138 135 137 139 141 145 150 141 127 127 120 112 109 114 121 120 120 119 118 114 109 101 93 70 36 9 317 307 302 311 315 311 336 73 72 79 90 97 89 73 81 89 87 84 86 89 88 85 81 79 77 75 74 72
105 145 144 144 149 146 144 148 145 142 134 128 138 147 149 147 146 150 154 156 153 151 148 143 147 145 148 146 141 140 138 139 140 143 146 145 153 155 149 147 139 131 119 121 124 125 128 127 128 124 120 115 111 104 83 45 312 282 302 315 319 322 341 336 89 83 79 77 79 78 75 79 81 82 83 84 87 88 89 87 81 78 77 76 75
140 167 141 145 147 139 145 137 143 145 141 137 148 144 143 136 141 151 154 158 156 154 143 143 148 147 151 150 150 145 145 146 146 145 151 152 162 147 158 159 150 141 131 131 135 136 132 135 134 131 126 119 114 116 143 276 272 304 309 314 324 333 323 322 100 82 74 72 82 88 90 96 89 84 87 86 84 87 90 90 84 79 76 75 77
140 147 147 147 139 143 134 140 147 137 144 138 147 159 153 152 150 146 154 158 162 155 146 142 150 151 154 155 154 152 153 153 152 153 158 165 160 178 161 161 160 147 143 146 144 143 144 142 142 137 130 126 126 136 148 236 298 290 300 308 309 312 312 246 82 87 84 87 87 85 88 82 82 82 82 82 80 81 80 79 77 78 73 72 73
140 140 116 105 133 121 131 145 147 142 153 152 150 154 157 152 147 145 158 167 168 161 147 146 151 159 161 158 156 159 167 159 160 164 164 171 178 182 163 166 158 156 152 157 153 154 153 150 148 146 140 137 142 149 175 218 250 276 282 290 305 309 269 105 99 97 100 92 92 94 95 91 87 84 82 85 84 80 75 74 79 77 77 77 77
147 140 130 124 119 123 138 144 139 147 152 151 148 149 155 160 165 159 175 174 177 174 164 173 174 170 171 162 176 179 177 168 185 162 176 173 177 170 164 165 167 168 161 159 163 161 159 157 159 156 150 149 154 161 181 218 237 246 261 268 283 276 284 68 88 94 96 93 94 104 101 96 91 90 87 84 85 84 81 79 79 81 77 79 82
150 154 135 130 129 126 141 139 138 147 153 151 152 149 156 168 165 169 176 179 189 192 191 196 190 185 193 186 198 195 185 168 190 164 177 167 164 173 163 171 172 177 168 165 167 167 166 170 170 169 165 167 175 177 185 180 216 239 249 266 244 241 107 97 97 96 94 98 88 101 99 102 99 97 97 91 88 91 87 91 87 78 85 86 89
152 146 134 128 124 125 95 99 148 156 160 156 152 153 161 164 164 167 167 178 185 192 196 209 202 203 200 203 215 212 187 182 174 181 157 164 154 177 167 172 181 182 181 164 172 172 175 180 184 182 181 188 213 193 180 174 196 188 208 227 240 189 169 109 110 103 106 109 112 115 114 106 106 101 95 98 95 89 88 87 87 95 99 92 86
143 111 93 130 128 116 139 180 162 160 160 145 147 155 150 142 162 165 169 179 192 185 186 209 212 234 207 225 218 103 273 223 165 155 139 143 164 172 173 180 178 194 187 201 177 178 180 186 191 196 210 209 218 233 173 179 199 188 190 211 221 170 107 99 92 97 95 97 119 120 117 113 111 107 107 110 104 99 94 85 87 93 99 93 92
78 84 150 132 132 137 171 177 153 144 111 145 139 136 123 161 213 86 76 90 111 174 32 7 1 13 326 322 323 20 326 305 159 153 167 157 164 180 187 182 188 198 180 221 193 166 202 189 196 197 214 216 218 243 178 169 186 146 115 168 178 218 126 97 102 105 106 108 110 120 125 124 106 106 117 116 102 101 97 102 97 95 88 85 91
97 123 125 95 98 133 186 171 146 148 129 55 118 107 113 92 34 60 75 356 46 42 42 24 57 300 323 332 351 10 311 307 326 319 223 164 171 177 187 182 189 201 177 219 196 171 216 188 191 208 215 229 232 211 164 185 184 142 105 194 239 124 100 110 109 112 114 116 122 124 124 125 121 122 119 114 115 115 113 105 103 104 107 104 101
107 126 132 133 120 196 175 134 127 105 111 59 89 58 102 121 76 96 75 30 51 91 91 74 47 4 345 331 312 4 321 357 305 269 282 200 184 176 193 175 189 197 190 219 201 178 215 203 190 206 222 230 215 184 161 184 331 152 145 123 333 47 74 87 112 119 121 123 127 126 131 131 127 131 134 131 128 120 113 115 115 117 115 106 106
119 128 132 108 132 206 122 138 108 126 128 109 127 93 85 106 119 82 40 23 88 89 79 79 53 40 269 294 324 344 13 82 247 257 277 272 242 189 191 176 187 186 188 214 212 200 204 212 213 210 225 238 224 162 221 147 204 110 136 176 162 71 81 91 102 124 129 130 122 131 130 107 131 152 146 144 113 123 124 126 121 109 101 103 88
126 122 127 117 156 175 150 151 141 153 141 127 66 76 52 66 70 36 18 354 16 9 82 62 15 75 269 253 264 312 7 124 285 275 270 284 258 283 218 179 188 179 188 208 214 194 204 204 249 235 232 157 255 160 256 166 182 140 181 166 106 118 89 95 114 117 118 117 128 135 127 111 93 84 122 118 130 128 132 129 119 119 122 122 112
116 124 126 135 143 166 148 150 150 139 131 135 166 135 31 62 44 63 41 44 51 55 52 57 67 223 229 229 261 133 255 205 228 266 283 307 352 314 306 279 198 184 185 209 227 181 205 202 211 240 272 318 296 206 212 155 242 149 203 147 125 103 104 106 101 111 123 132 134 139 137 135 121 111 132 146 146 149 138 135 124 121 124 121 118
121 124 129 118 135 136 150 146 143 123 97 94 79 88 152 153 159 91 53 246 156 134 86 119 205 230 199 193 212 186 188 253 230 240 273 345 232 187 292 310 285 213 184 201 215 202 194 198 211 217 122 251 276 237 222 195 226 203 155 160 113 123 114 98 116 123 131 129 139 135 139 136 136 147 147 179 166 147 142 141 133 132 133 126 121
119 123 126 127 135 141 145 145 127 98 89 87 102 114 126 84 100 84 106 213 205 106 120 174 214 267 212 205 233 211 193 194 224 240 173 208 293 317 21 282 285 282 215 200 213 216 200 170 206 255 177 234 216 214 198 241 235 263 181 101 119 130 117 130 121 128 116 121 129 137 148 149 147 138 144 147 139 147 171 142 144 144 138 137 128
115 105 100 109 131 138 137 136 136 112 107 110 214 178 143 152 157 161 156 143 128 86 111 230 211 167 186 269 234 228 217 181 194 214 196 151 204 210 193 245 262 266 274 274 215 182 199 172 184 230 171 243 211 199 249 219 224 185 158 112 140 110 137 146 147 124 137 130 127 146 150 158 146 160 153 148 151 154 120 141 138 140 136 128 126
127 130 131 144 155 139 138 128 124 142 154 173 206 190 141 180 185 172 160 184 188 167 176 198 196 170 179 213 225 219 223 219 188 191 203 166 166 210 207 226 289 300 294 255 282 223 218 198 175 206 186 228 232 232 221 233 217 201 172 137 144 126 139 128 119 144 157 111 102 126 140 145 157 163 153 139 141 145 149 143 149 143 148 145 138
122 125 124 129 127 118 118 120 132 143 159 170 179 181 162 157 181 163 148 205 195 180 173 194 195 164 188 200 214 207 209 210 206 186 184 154 188 236 247 116 272 301 270 267 229 248 255 249 190 184 198 204 200 227 225 212 230 214 151 128 109 133 138 112 148 138 119 113 124 144 152 137 133 143 146 144 147 144 160 162 138 145 151 149 146
110 118 118 125 123 132 127 131 140 158 158 157 153 136 140 148 191 197 183 203 194 155 155 182 185 163 185 220 217 228 225 214 205 177 154 170 195 249 259 146 191 237 287 292 228 271 252 252 233 196 198 206 206 212 201 207 213 214 140 139 124 142 120 113 165 125 111 105 116 145 134 126 139 147 132 137 147 143 171 148 150 159 155 147 146
102 110 115 118 118 125 129 128 131 123 134 130 134 121 135 169 176 238 210 198 213 181 177 189 194 173 182 220 227 225 213 229 223 181 154 144 188 234 296 245 177 188 243 287 315 301 272 253 237 236 201 199 212 200 191 199 218 197 157 140 135 107 88 140 103 80 130 131 73 154 136 127 142 141 139 142 146 145 147 151 162 159 161 154 145
93 107 110 107 107 104 105 110 114 139 124 169 117 120 174 200 161 213 282 271 199 197 177 212 225 192 189 209 219 216 211 212 200 197 191 166 197 210 244 232 122 173 205 233 344 327 294 265 244 235 244 211 201 210 189 181 187 201 155 146 79 78 95 54 76 104 83 106 155 182 120 136 139 151 145 159 158 152 154 160 154 151 146 160 169
63 86 106 105 107 122 125 109 104 124 143 135 150 174 186 183 147 145 254 252 252 219 185 217 225 216 204 203 208 208 218 204 205 194 178 175 189 201 191 160 178 281 271 217 165 202 257 271 248 226 230 243 222 230 173 154 193 142 98 58 72 84 119 134 135 108 113 137 146 139 138 139 146 155 157 164 167 139 158 164 174 174 152 167 176
75 81 82 81 85 97 122 115 131 168 166 173 166 133 143 123 9 227 208 227 230 224 201 183 210 221 209 210 211 208 206 198 197 204 199 191 193 199 208 194 184 197 196 219 190 225 263 348 345 327 280 229 226 216 178 170 146 112 72 87 83 61 41 6 127 100 124 226 164 152 138 151 157 166 160 157 160 150 160 172 189 162 154 162 169
74 71 77 100 114 114 78 62 45 14 12 355 15 87 213 198 186 202 202 219 230 217 223 215 213 217 200 211 214 207 203 202 195 177 213 228 218 208 210 215 189 202 197 210 206 213 222 218 172 261 286 271 230 210 180 144 278 185 150 149 118 143 114 280 223 209 185 248 137 133 123 152 162 157 143 158 161 166 175 170 180 156 165 165 176
67 64 61 67 70 95 116 126 145 192 120 235 221 268 255 228 217 229 231 249 243 254 256 240 205 209 220 219 214 212 215 193 190 193 216 202 204 200 204 215 190 189 194 198 201 216 207 191 176 196 264 265 249 267 36 296 190 164 159 129 179 168 260 331 284 232 198 222 158 190 137 167 178 149 157 158 166 179 178 173 156 187 167 169 181
71 72 66 62 62 61 67 74 106 133 154 143 208 185 153 319 261 249 226 218 250 248 240 256 247 227 240 234 237 228 228 212 206 213 221 226 217 185 184 208 210 189 200 196 183 197 195 213 183 198 202 295 294 312 161 247 235 177 181 205 158 173 165 221 194 213 192 218 193 203 161 165 176 154 149 167 171 168 169 174 185 184 152 175 197
67 66 60 60 59 58 56 58 45 37 287 101 273 143 176 206 211 226 227 224 221 227 242 236 220 219 224 218 216 228 229 211 214 210 217 230 226 207 198 197 223 206 199 207 213 196 195 200 198 207 195 203 275 237 234 248 252 209 150 152 106 223 220 132 162 187 170 198 226 198 180 150 198 157 157 192 155 162 173 173 185 183 171 178 181
68 62 64 58 64 72 85 80 115 337 317 297 273 340 230 249 209 221 227 210 230 211 213 228 214 201 217 216 212 217 228 221 213 213 218 213 210 210 185 192 205 211 201 210 216 203 194 204 198 221 195 209 256 250 227 235 242 222 251 327 113 153 162 148 139 191 162 211 193 181 42 213 160 141 160 165 145 149 176 177 181 187 178 171 169
56 57 55 44 49 48 34 31 87 171 300 331 301 156 261 248 268 278 273 277 281 271 281 294 282 283 255 216 216 204 225 225 215 211 219 225 224 192 211 200 197 205 207 211 219 211 205 206 187 202 189 185 199 233 219 216 210 230 237 250 193 154 137 137 176 105 167 226 160 201 183 290 209 167 157 181 165 156 160 177 180 194 173 151 161
42 46 49 46 34 32 25 21 29 17 360 343 339 333 316 309 303 298 293 286 282 299 308 303 288 231 269 261 245 206 210 230 214 219 220 219 202 258 220 208 202 201 203 202 210 207 192 187 186 203 176 187 198 204 239 217 186 201 210 221 220 227 179 170 226 243 124 175 203 190 188 200 209 178 170 180 174 174 161 173 182 165 149 154 159
39 31 16 22 27 28 20 17 18 17 4 356 337 337 327 315 315 316 304 306 313 320 314 307 302 311 281 273 261 281 226 228 241 228 229 224 194 201 216 203 205 205 200 202 203 197 195 187 193 185 199 199 201 206 218 220 198 200 173 212 210 211 213 216 191 161 175 223 176 178 187 178 212 186 170 172 192 169 169 170 183 148 154 163 166
35 32 23 22 23 20 13 18 18 14 360 2 352 353 345 326 313 312 319 328 333 318 313 307 302 294 290 266 267 239 227 206 242 256 240 233 223 217 211 213 213 207 194 201 200 197 190 191 201 195 195 212 205 196 201 205 212 214 194 196 196 196 222 212 212 185 182 230 201 179 179 176 190 189 180 178 193 174 184 173 175 176 168 163 165
42 32 25 20 14 15 8 11 16 11 2 358 357 354 347 347 348 350 347 338 333 321 309 310 330 325 304 281 229 237 210 216 198 213 265 259 242 230 216 214 214 209 200 197 198 194 191 190 193 211 196 203 213 190 196 199 210 220 207 198 206 197 197 195 209 203 198 204 177 186 171 183 183 164 190 182 190 181 189 186 189 174 162 145 170